Edinburg, TX

7:05 AM CDT on June 27, 2017 (GMT -0500)
Edinburg

Weather History for KEBG - July, 2013

Change the Weather History Date:

Friday, July 26, 2013

  Actual Average (KMFE) Record (KMFE)
Temperature  
Mean Temperature 92 °F -  
Max Temperature 103 °F 97 °F 106 °F (1986)
Min Temperature 81 °F 75 °F 71 °F (1988)
Cooling Degree Days 27    
Growing Degree Days 42 (Base 50)    
Moisture  
Dew Point 71 °F    
Average Humidity 57    
Maximum Humidity 81    
Minimum Humidity 26    
Precipitation  
Precipitation 0.00 in - - ()
Sea Level Pressure  
Sea Level Pressure 29.96 in    
Wind  
Wind Speed 11 mph (SSE)    
Max Wind Speed 21 mph    
Max Gust Speed 28 mph    
Visibility 9 miles    
Events      
Averages and records for this station are not official NWS values.
T = Trace of Precipitation, MM = Missing Value Source: NWS Daily Summary

Daily Weather History Graph

Daily Weather History Graph

Search for Another Location

Airport or City:

Trip Planner

Search our weather history database for the weather conditions in past years. The results will help you decide how hot, cold, wet, or windy it might be!

Date:

Astronomy

Jul. 26, 2013 Rise Set
Actual Time 6:54 AM CDT 8:22 PM CDT
Civil Twilight 6:29 AM CDT 8:48 PM CDT
Nautical Twilight 5:59 AM CDT 9:18 PM CDT
Astronomical Twilight 5:28 AM CDT 9:49 PM CDT
Moon 11:12 PM CDT (7/26) 11:00 AM CDT (7/26)
Length of Visible Light 14h 18m
Length of Day
13h 28m
Waning Gibbous, 80% of the Moon is Illuminated
Jul 26
Waning Gibbous
Jul 29
Last Quarter
Aug 6
New
Aug 14
First Quarter
Aug 20
Full

Hourly Weather History & Observations

Time (CDT) Temp. Heat Index Dew Point Humidity Pressure Visibility Wind Dir Wind Speed Gust Speed Precip Events Conditions
12:15 AM 83.5 °F 90.6 °F 74.3 °F 74% 30.02 in 10.0 mi SSE 11.5 mph - N/A   Scattered Clouds
12:35 AM 83.3 °F 90.2 °F 74.3 °F 74% 30.02 in 10.0 mi SSE 8.1 mph - N/A   Scattered Clouds
12:55 AM 83.3 °F 90.2 °F 74.3 °F 74% 30.03 in 10.0 mi SSE 11.5 mph - N/A   Scattered Clouds
1:15 AM 83.5 °F 90.6 °F 74.5 °F 74% 30.02 in 10.0 mi SSE 9.2 mph - N/A   Mostly Cloudy
1:35 AM 83.3 °F 90.5 °F 74.5 °F 75% 30.02 in 10.0 mi SSE 8.1 mph - N/A   Mostly Cloudy
1:55 AM 82.9 °F 89.9 °F 74.7 °F 76% 30.02 in 10.0 mi SSE 8.1 mph - N/A   Scattered Clouds
2:15 AM 82.8 °F 89.5 °F 74.7 °F 76% 30.01 in 10.0 mi SSE 8.1 mph - N/A   Clear
2:35 AM 82.6 °F 89.4 °F 74.7 °F 77% 30.00 in 10.0 mi SSE 8.1 mph - N/A   Clear
2:55 AM 82.4 °F 89.0 °F 74.7 °F 77% 30.00 in 10.0 mi SSE 8.1 mph - N/A   Scattered Clouds
3:15 AM 82.4 °F 89.0 °F 74.7 °F 77% 30.00 in 10.0 mi SSE 4.6 mph - N/A   Mostly Cloudy
3:35 AM 82.8 °F 89.5 °F 74.7 °F 76% 30.00 in 10.0 mi SSE 5.8 mph - N/A   Overcast
3:55 AM 82.6 °F 89.4 °F 74.7 °F 77% 30.00 in 10.0 mi SE 4.6 mph - N/A   Mostly Cloudy
4:15 AM 82.4 °F 89.0 °F 74.5 °F 77% 29.99 in 10.0 mi SSE 6.9 mph - N/A   Mostly Cloudy
4:35 AM 82.4 °F 89.0 °F 74.7 °F 77% 29.99 in 10.0 mi SSE 8.1 mph - N/A   Mostly Cloudy
4:55 AM 82.4 °F 89.0 °F 74.7 °F 77% 29.99 in 10.0 mi SSE 6.9 mph - N/A   Mostly Cloudy
5:15 AM 82.2 °F 88.8 °F 74.7 °F 78% 29.99 in 10.0 mi SSE 5.8 mph - N/A   Scattered Clouds
5:35 AM 82.2 °F 88.8 °F 74.7 °F 78% 29.99 in 10.0 mi SSE 8.1 mph - N/A   Scattered Clouds
5:55 AM 82.2 °F 88.8 °F 74.7 °F 78% 29.99 in 10.0 mi SSE 8.1 mph - N/A   Scattered Clouds
6:15 AM 82.0 °F 88.6 °F 74.8 °F 79% 29.99 in 10.0 mi SE 9.2 mph - N/A   Scattered Clouds
6:35 AM 82.0 °F 88.6 °F 74.8 °F 79% 29.99 in 10.0 mi SSE 9.2 mph - N/A   Scattered Clouds
6:55 AM 81.7 °F 88.0 °F 75.0 °F 80% 29.99 in 10.0 mi SSE 8.1 mph - N/A   Clear
7:15 AM 81.5 °F 87.8 °F 75.0 °F 81% 29.99 in 10.0 mi South 10.4 mph - N/A   Clear
7:35 AM 81.7 °F 88.3 °F 75.2 °F 81% 29.99 in 10.0 mi SSE 9.2 mph - N/A   Clear
7:55 AM 82.4 °F 89.2 °F 75.0 °F 78% 29.99 in 10.0 mi South 9.2 mph - N/A   Clear
8:15 AM 83.3 °F 90.8 °F 74.8 °F 76% 29.99 in 10.0 mi SSE 12.7 mph - N/A   Clear
8:35 AM 84.2 °F 91.6 °F 74.3 °F 72% 29.99 in 10.0 mi SSE 11.5 mph - N/A   Clear
8:55 AM 85.5 °F 93.4 °F 74.1 °F 69% 30.00 in 10.0 mi South 11.5 mph 18.4 mph N/A   Clear
9:15 AM 86.9 °F 94.5 °F 73.4 °F 64% 30.01 in 10.0 mi South 13.8 mph 18.4 mph N/A   Clear
9:35 AM 88.2 °F 95.5 °F 72.7 °F 60% 30.01 in 5.0 mi SSE 16.1 mph 21.9 mph N/A   Haze
9:55 AM 89.1 °F 96.0 °F 72.1 °F 57% 30.01 in 5.0 mi South 13.8 mph - N/A   Haze
10:15 AM 90.9 °F 97.3 °F 71.2 °F 52% 30.00 in 7.0 mi South 13.8 mph - N/A   Clear
10:35 AM 91.4 °F 97.3 °F 70.3 °F 50% 30.00 in 7.0 mi SSE 12.7 mph 20.7 mph N/A   Clear
10:55 AM 93.0 °F 98.4 °F 69.3 °F 46% 30.00 in 7.0 mi SSE 17.3 mph 21.9 mph N/A   Clear
11:15 AM 93.9 °F 98.6 °F 68.2 °F 43% 30.00 in 7.0 mi South 13.8 mph - N/A   Clear
11:35 AM 95.4 °F 100.2 °F 68.2 °F 41% 30.01 in 7.0 mi South 13.8 mph 20.7 mph N/A   Clear
11:55 AM 96.6 °F 101.5 °F 68.2 °F 39% 30.00 in 7.0 mi South 12.7 mph 19.6 mph N/A   Clear
12:15 PM 96.8 °F 101.2 °F 67.1 °F 38% 29.99 in 10.0 mi SSE 17.3 mph 20.7 mph N/A   Clear
12:35 PM 97.9 °F 102.1 °F 66.6 °F 36% 29.98 in 7.0 mi SSE 17.3 mph 21.9 mph N/A   Clear
12:55 PM 99.1 °F 102.6 °F 65.3 °F 33% 29.98 in 7.0 mi South 11.5 mph 20.7 mph N/A   Clear
1:15 PM 99.5 °F 102.6 °F 64.4 °F 32% 29.97 in 7.0 mi South 11.5 mph 18.4 mph N/A   Clear
1:35 PM 100.6 °F 103.9 °F 64.4 °F 31% 29.96 in 10.0 mi SSE 15.0 mph 25.3 mph N/A   Clear
1:55 PM 100.9 °F 103.3 °F 63.1 °F 29% 29.94 in 7.0 mi SSE 17.3 mph 23.0 mph N/A   Clear
2:15 PM 102.6 °F 104.8 °F 63.1 °F 27% 29.94 in 7.0 mi South 16.1 mph 23.0 mph N/A   Clear
2:35 PM 103.1 °F 105.1 °F 62.2 °F 26% 29.93 in 7.0 mi South 16.1 mph 25.3 mph N/A   Clear
2:55 PM 102.2 °F 106.9 °F 66.4 °F 31% 29.92 in 7.0 mi SE 16.1 mph - N/A   Clear
3:15 PM 102.0 °F 106.6 °F 65.7 °F 31% 29.92 in 7.0 mi SE 19.6 mph 24.2 mph N/A   Scattered Clouds
3:35 PM 102.0 °F 105.9 °F 65.5 °F 30% 29.91 in 7.0 mi SSE 20.7 mph - N/A   Clear
3:55 PM 102.6 °F 106.2 °F 64.4 °F 29% 29.91 in 7.0 mi SSE 18.4 mph 24.2 mph N/A   Clear
4:15 PM 102.0 °F 104.6 °F 63.5 °F 28% 29.90 in 7.0 mi SE 17.3 mph 24.2 mph N/A   Clear
4:35 PM 101.7 °F 103.9 °F 62.8 °F 28% 29.90 in 7.0 mi SSE 16.1 mph 21.9 mph N/A   Clear
4:55 PM 102.0 °F 104.6 °F 63.0 °F 28% 29.89 in 7.0 mi SSE 18.4 mph 24.2 mph N/A   Clear
5:15 PM 101.3 °F 104.0 °F 63.9 °F 29% 29.89 in 7.0 mi SE 18.4 mph 26.5 mph N/A   Clear
5:35 PM 99.9 °F 103.3 °F 65.1 °F 32% 29.89 in 10.0 mi SE 15.0 mph 25.3 mph N/A   Clear
6:15 PM 97.0 °F 101.0 °F 66.7 °F 37% 29.88 in 10.0 mi SSE 16.1 mph 24.2 mph N/A   Clear
6:35 PM 95.9 °F 100.1 °F 66.9 °F 39% 29.88 in 10.0 mi SSE 18.4 mph 26.5 mph N/A   Clear
6:55 PM 95.0 °F 98.5 °F 66.6 °F 39% 29.89 in 10.0 mi SSE 20.7 mph 27.6 mph N/A   Clear
7:55 PM 90.7 °F 94.1 °F 67.1 °F 46% 29.89 in 10.0 mi SSE 20.7 mph 27.6 mph N/A   Clear
8:15 PM 89.6 °F 94.3 °F 69.3 °F 51% 29.89 in 10.0 mi SSE 19.6 mph 25.3 mph N/A   Clear
8:35 PM 88.3 °F 93.2 °F 69.8 °F 54% 29.90 in 10.0 mi SSE 16.1 mph 26.5 mph N/A   Clear
8:55 PM 87.4 °F 92.3 °F 70.0 °F 56% 29.90 in 10.0 mi SSE 17.3 mph - N/A   Clear
9:15 PM 86.9 °F 92.1 °F 70.7 °F 58% 29.91 in 10.0 mi SSE 16.1 mph 21.9 mph N/A   Clear
9:35 PM 86.0 °F 91.5 °F 71.2 °F 61% 29.91 in 10.0 mi SSE 13.8 mph 20.7 mph N/A   Clear
9:55 PM 85.6 °F 91.5 °F 71.6 °F 63% 29.93 in 10.0 mi SSE 9.2 mph 19.6 mph N/A   Clear
10:35 PM 85.1 °F 90.8 °F 71.6 °F 64% 29.94 in 10.0 mi SSE 17.3 mph - N/A   Clear
10:55 PM 84.6 °F 90.3 °F 72.1 °F 66% 29.94 in 10.0 mi SSE 12.7 mph - N/A   Clear
11:15 PM 84.2 °F 90.6 °F 72.9 °F 69% 29.95 in 10.0 mi SSE 11.5 mph 17.3 mph N/A   Clear
11:35 PM 84.2 °F 90.6 °F 73.0 °F 69% 29.95 in 10.0 mi SSE 12.7 mph - N/A   Clear
11:55 PM 84.2 °F 90.9 °F 73.4 °F 70% 29.96 in 10.0 mi SSE 10.4 mph 18.4 mph N/A   Clear